Flag for Tanzania Weather past 2 weeks in Bukoba, Tanzania

Now
68 °F

Passing clouds.


Feels Like: 68 °F
Forecast: 63 / 80 °F
Wind: No wind

Location: Bukoba

Current Time: Sep 19, 2014 at 5:33:04 AM

Latest Report: Sep 19, 2014 at 2:00 AM


Visibility: N/A

Pressure: 30.01 "Hg

Humidity: 94%

Dew point: 66 °F

Location of BukobaLocation

Historic Weather in Bukoba — Graph

°F

Bukoba temperature yesterday

Maximum temperature yesterday: 81 °F (at 2:00 PM)
Minimum temperature yesterday: 66 °F (at 6:00 AM)
Average temperature yesterday: 74 °F

Past Weeks' High & Low Weather Summary

 TemperatureHumidityPressure
High82 °F (Sep 12, 2:00 PM)100% (Sep 5, 2:00 PM)30.18 "Hg (Sep 5, 2:00 PM)
Low61 °F (Sep 10, 6:00 AM)51% (Sep 9, 10:00 AM)29.95 "Hg (Sep 12, 6:00 PM)
Average73 °F76%30.05 "Hg
* Reported Sep 4 8:00 AM — Sep 19 2:00 AM, Bukoba, Weather by CustomWeather, © 2014

Note: Actual official high and low records may vary slightly from our data, if they occured in-between our weather recording intervals... More about our weather records

Advertising

Bukoba weather history for previous 24 hours

 ConditionsComfort  
Time TempWeatherWind HumidityBarometerVisibility
2:00 AM
Sep 19
68 °FPassing clouds.No wind94%30.01 "HgN/A
12:00 AM70 °FPassing clouds.No wind88%30.04 "HgN/A
11:00 PM
Sep 18
72 °FPassing clouds.No wind83%30.04 "HgN/A
10:00 PM73 °FPassing clouds.No wind78%30.04 "HgN/A
9:00 PM73 °FPassing clouds.No wind78%30.01 "HgN/A
8:00 PM75 °FPassing clouds.No wind69%30.01 "HgN/A
7:00 PM75 °FPassing clouds.No wind69%29.98 "HgN/A
6:00 PM75 °FScattered clouds.No wind74%29.95 "HgN/A
5:00 PM79 °FScattered clouds.3 mph65%29.95 "HgN/A
2:00 PM81 °FScattered clouds.7 mph70%30.01 "HgN/A
1:00 PM79 °FScattered clouds.9 mph70%30.07 "HgN/A
12:00 PM79 °FScattered clouds.9 mph65%30.09 "HgN/A
11:00 AM77 °FScattered clouds.7 mph74%30.09 "HgN/A
10:00 AM77 °FScattered clouds.6 mph69%30.09 "HgN/A
9:00 AM75 °FBroken clouds.No wind65%30.07 "HgN/A
8:00 AM68 °FBroken clouds.No wind88%30.07 "HgN/A
7:00 AM66 °FPartly sunny.3 mph83%30.04 "HgN/A
6:00 AM66 °FPassing clouds.6 mph83%30.01 "HgN/A
Weather by CustomWeather, © 2014

See weather overviewHow to use our weather pages